FW2848 Weather Reports


time (UTC)temp
C
wind
direction
speed
KPH
gust
KPH
rain 1hr
cm
rain 24hr
cm
rain mn
cm
humidity
%
barometer
mb
20260510033743 26 178 20.9 32.2 0.00 0.00 0.00 54 1007.8
20260510033245 26 200 17.7 32.2 0.00 0.00 0.00 54 1007.6
20260510033037 26 144 17.7 27.4 0.00 0.00 0.00 54 1007.7
20260510032242 26 157 14.5 27.4 0.00 0.00 0.00 54 1007.7
20260510031742 26 134 19.3 27.4 0.00 0.00 0.00 53 1007.8
20260510031242 26 162 16.1 25.7 0.00 0.00 0.00 53 1007.7
20260510030743 26 175 19.3 29.0 0.00 0.00 0.00 53 1007.8
20260510030243 26 168 17.7 29.0 0.00 0.00 0.00 53 1007.8
20260510025742 26 133 17.7 27.4 0.00 0.00 0.00 52 1007.7
20260510025243 26 161 16.1 22.5 0.00 0.00 0.00 52 1007.7
20260510024743 26 158 17.7 22.5 0.00 0.00 0.00 51 1007.6
20260510024244 26 145 12.9 22.5 0.00 0.00 0.00 50 1007.6
20260510023741 26 147 17.7 22.5 0.00 0.00 0.00 50 1007.6
20260510023243 26 189 12.9 19.3 0.00 0.00 0.00 49 1007.6
20260510022743 26 189 12.9 20.9 0.00 0.00 0.00 45 1007.6
20260510022241 -17 158 12.9 20.9 0.00 0.00 0.00 1007.5
20260510021742 26 171 12.9 19.3 0.00 0.00 0.00 44 1007.5
20260510021241 26 178 8.0 14.5 0.00 0.00 0.00 44 1007.4
20260510020740 26 178 8.0 14.5 0.00 0.00 0.00 44 1007.3
20260510020242 26 148 8.0 14.5 0.00 0.00 0.00 44 1007.3
20260510015741 26 152 9.7 11.3 0.00 0.00 0.00 44 1007.0
20260510015242 26 173 8.0 14.5 0.00 0.00 0.00 45 1007.1
20260510014742 27 172 9.7 14.5 0.00 0.00 0.00 44 1006.9
20260510014241 27 176 9.7 14.5 0.00 0.00 0.00 44 1006.9
20260510013813 27 169 11.3 14.5 0.00 0.00 0.00 42 1006.8
20260510013033 28 169 8.0 11.3 0.00 0.00 0.00 41 1006.7
20260510012532 28 169 8.0 11.3 0.00 0.00 0.00 40 1006.8
20260510012034 29 166 4.8 9.7 0.00 0.00 0.00 40 1006.8
20260510011239 29 171 6.4 9.7 0.00 0.00 0.00 39 1006.9
20260510010739 29 180 8.0 9.7 0.00 0.00 0.00 38 1006.9
20260510010240 30 180 8.0 14.5 0.00 0.00 0.00 37 1006.9
20260510010027 30 226 9.7 14.5 0.00 0.00 0.00 37 1006.8
20260510005239 30 161 8.0 19.3 0.00 0.00 0.00 35 1006.8
20260510004739 30 182 11.3 20.9 0.00 0.00 0.00 34 1006.7
20260510004239 30 180 12.9 22.5 0.00 0.00 0.00 33 1006.7
20260510003739 31 196 9.7 22.5 0.00 0.00 0.00 33 1006.8
20260510003240 31 188 14.5 20.9 0.00 0.00 0.00 33 1006.7
20260510002739 31 175 16.1 20.9 0.00 0.00 0.00 33 1006.8
20260510002238 31 199 12.9 24.1 0.00 0.00 0.00 34 1006.7
20260510001738 31 165 14.5 24.1 0.00 0.00 0.00 33 1006.7
20260510001237 31 173 19.3 24.1 0.00 0.00 0.00 32 1006.7
20260510000739 31 183 14.5 24.1 0.00 0.00 0.00 33 1006.8
20260510000241 32 141 9.7 20.9 0.00 0.00 0.00 33 1006.9
20260509235738 32 195 8.0 20.9 0.00 0.00 0.00 33 1006.8
20260509235238 32 168 12.9 24.1 0.00 0.00 0.00 32 1006.8
20260509234737 32 172 17.7 30.6 0.00 0.00 0.00 31 1006.8
20260509234238 32 183 11.3 30.6 0.00 0.00 0.00 30 1006.8
20260509233737 32 189 11.3 22.5 0.00 0.00 0.00 31 1006.9
20260509233237 -17 158 14.5 22.5 0.00 0.00 0.00 1006.9
20260509232737 32 210 14.5 20.9 0.00 0.00 0.00 31 1006.9
20260509232237 32 183 12.9 22.5 0.00 0.00 0.00 31 1006.9
20260509231737 33 207 12.9 22.5 0.00 0.00 0.00 30 1006.9
20260509231236 33 227 14.5 22.5 0.00 0.00 0.00 30 1006.9
20260509230736 33 165 8.0 20.9 0.00 0.00 0.00 30 1006.9
20260509230237 33 217 11.3 20.9 0.00 0.00 0.00 30 1007.0
20260509225736 33 220 4.8 19.3 0.00 0.00 0.00 31 1006.9
20260509225238 33 244 9.7 19.3 0.00 0.00 0.00 31 1007.0
20260509224736 33 185 6.4 20.9 0.00 0.00 0.00 31 1007.0
20260509224238 33 251 14.5 24.1 0.00 0.00 0.00 29 1006.9
20260509223735 33 197 9.7 24.1 0.00 0.00 0.00 30 1007.0
20260509223236 33 169 11.3 24.1 0.00 0.00 0.00 31 1007.0
20260509222736 33 196 9.7 24.1 0.00 0.00 0.00 30 1006.9
20260509222530 33 223 8.0 22.5 0.00 0.00 0.00 31 1006.9
20260509221738 -17 199 6.4 24.1 0.00 0.00 0.00 1007.0
20260509221235 -17 138 11.3 27.4 0.00 0.00 0.00 1006.9
20260509220735 33 185 17.7 27.4 0.00 0.00 0.00 31 1007.0
20260509220525 33 173 14.5 25.7 0.00 0.00 0.00 31 1006.9
20260509215735 33 221 8.0 19.3 0.00 0.00 0.00 31 1006.9
20260509215236 33 178 8.0 19.3 0.00 0.00 0.00 31 1007.0
20260509214734 33 217 9.7 19.3 0.00 0.00 0.00 35 1007.1
20260509214234 33 247 11.3 19.3 0.00 0.00 0.00 31 1007.1
20260509213736 33 182 9.7 19.3 0.00 0.00 0.00 31 1007.3
20260509213237 33 204 11.3 24.1 0.00 0.00 0.00 31 1007.3
20260509212734 33 179 9.7 29.0 0.00 0.00 0.00 34 1007.3
20260509212235 33 197 17.7 29.0 0.00 0.00 0.00 33 1007.4
20260509211734 33 210 14.5 24.1 0.00 0.00 0.00 36 1007.4
20260509211234 33 168 9.7 30.6 0.00 0.00 0.00 35 1007.5
20260509210733 33 169 20.9 32.2 0.00 0.00 0.00 33 1007.6
20260509210234 33 159 14.5 32.2 0.00 0.00 0.00 33 1007.6
20260509205734 33 155 6.4 17.7 0.00 0.00 0.00 33 1007.6
20260509205235 33 231 3.2 25.7 0.00 0.00 0.00 35 1007.8
20260509205021 33 134 12.9 25.7 0.00 0.00 0.00 34 1008.0
20260509204527 33 124 12.9 19.3 0.00 0.00 0.00 35 1007.9
20260509204033 33 169 11.3 20.9 0.00 0.00 0.00 36 1008.0
20260509203233 33 164 8.0 20.9 0.00 0.00 0.00 35 1008.1
20260509202733 33 171 12.9 20.9 0.00 0.00 0.00 35 1008.2
20260509202235 33 219 4.8 27.4 0.00 0.00 0.00 35 1008.2
20260509201732 32 202 11.3 27.4 0.00 0.00 0.00 36 1008.3
20260509201233 32 165 9.7 19.3 0.00 0.00 0.00 37 1008.3
20260509200732 32 169 9.7 24.1 0.00 0.00 0.00 34 1008.4
20260509200233 32 128 14.5 24.1 0.00 0.00 0.00 36 1008.4
20260509200021 32 149 12.9 20.9 0.00 0.00 0.00 36 1008.5
20260509195232 32 179 12.9 19.3 0.00 0.00 0.00 37 1008.6
20260509194732 32 183 6.4 19.3 0.00 0.00 0.00 39 1008.7
20260509194231 32 209 8.0 19.3 0.00 0.00 0.00 41 1008.8
20260509193732 32 148 6.4 20.9 0.00 0.00 0.00 38 1008.8
20260509193232 32 166 9.7 20.9 0.00 0.00 0.00 38 1009.0
20260509193028 32 154 12.9 20.9 0.00 0.00 0.00 38 1009.0
20260509192306 32 137 16.1 19.3 0.00 0.00 0.00 40 1009.0
20260509191233 32 193 9.7 20.9 0.00 0.00 0.00 39 1009.3
20260509190732 32 148 4.8 19.3 0.00 0.00 0.00 40 1009.3
20260509190236 32 178 11.3 16.1 0.00 0.00 0.00 43 1009.2
20260509185738 32 173 6.4 19.3 0.00 0.00 0.00 41 1009.3
20260509185232 32 166 9.7 19.3 0.00 0.00 0.00 43 1009.3
20260509184731 32 248 6.4 14.5 0.00 0.00 0.00 43 1009.3
20260509184232 32 197 8.0 14.5 0.00 0.00 0.00 42 1009.4
20260509183734 31 258 6.4 16.1 0.00 0.00 0.00 44 1009.3
20260509183230 31 274 6.4 16.1 0.00 0.00 0.00 46 1009.5
20260509182730 31 185 4.8 22.5 0.00 0.00 0.00 46 1009.5
20260509182230 31 237 11.3 24.1 0.00 0.00 0.00 47 1009.5
20260509182024 31 172 6.4 24.1 0.00 0.00 0.00 46 1009.5
20260509181230 31 226 4.8 14.5 0.00 0.00 0.00 45 1009.6
20260509180731 30 80 3.2 14.5 0.00 0.00 0.00 47 1009.8
20260509180229 30 117 4.8 16.1 0.00 0.00 0.00 46 1009.9
20260509175732 30 180 11.3 17.7 0.00 0.00 0.00 46 1010.0
20260509175229 31 138 9.7 17.7 0.00 0.00 0.00 48 1010.0
20260509174731 31 206 9.7 17.7 0.00 0.00 0.00 48 1010.1
20260509174230 30 142 8.0 17.7 0.00 0.00 0.00 47 1010.3
20260509173728 30 185 6.4 14.5 0.00 0.00 0.00 50 1010.2
20260509173229 30 209 3.2 19.3 0.00 0.00 0.00 47 1010.2
20260509172728 30 192 8.0 19.3 0.00 0.00 0.00 49 1010.3
20260509172231 30 238 4.8 17.7 0.00 0.00 0.00 49 1010.3
20260509171729 30 148 6.4 19.3 0.00 0.00 0.00 48 1010.5
20260509171230 30 188 14.5 19.3 0.00 0.00 0.00 49 1010.5
20260509170729 30 185 8.0 14.5 0.00 0.00 0.00 52 1010.7
20260509170227 30 214 6.4 24.1 0.00 0.00 0.00 52 1010.5
20260509170025 30 148 11.3 24.1 0.00 0.00 0.00 51 1010.6
20260509165229 29 169 12.9 17.7 0.00 0.00 0.00 53 1010.6
20260509164729 29 176 6.4 16.1 0.00 0.00 0.00 52 1010.6
20260509164228 29 196 6.4 16.1 0.00 0.00 0.00 52 1010.6
20260509163727 29 176 9.7 16.1 0.00 0.00 0.00 57 1010.6
20260509163227 28 217 6.4 14.5 0.00 0.00 0.00 57 1010.7
20260509162728 28 219 9.7 14.5 0.00 0.00 0.00 59 1010.7
20260509162228 28 243 4.8 14.5 0.00 0.00 0.00 59 1010.8
20260509161726 28 212 6.4 20.9 0.00 0.00 0.00 60 1010.8
20260509161226 28 209 9.7 20.9 0.00 0.00 0.00 58 1010.7
20260509160726 28 183 9.7 17.7 0.00 0.00 0.00 58 1010.7
20260509160227 28 183 8.0 17.7 0.00 0.00 0.00 60 1010.8
20260509155726 27 207 11.3 16.1 0.00 0.00 0.00 60 1010.7
20260509155523 27 210 8.0 16.1 0.00 0.00 0.00 59 1010.8
20260509155015 27 234 9.7 16.1 0.00 0.00 0.00 61 1010.8
20260509154227 27 213 9.7 16.1 0.00 0.00 0.00 61 1010.8
20260509154022 27 237 8.0 17.7 0.00 0.00 0.00 63 1010.8
20260509153226 27 226 8.0 17.7 0.00 0.00 0.00 64 1010.9
20260509152726 27 214 8.0 20.9 0.00 0.00 0.00 65 1010.9
20260509152225 26 275 9.7 25.7 0.00 0.00 0.00 65 1010.7
20260509151726 26 268 16.1 25.7 0.00 0.00 0.00 66 1010.8
20260509151227 26 223 12.9 19.3 0.00 0.00 0.00 69 1010.8
20260509150725 26 264 9.7 19.3 0.00 0.00 0.00 69 1010.8
20260509150225 25 252 11.3 29.0 0.00 0.00 0.00 69 1010.8
20260509145725 25 259 14.5 29.0 0.00 0.00 0.00 69 1010.8
20260509145226 25 221 11.3 20.9 0.00 0.00 0.00 70 1010.8
20260509144724 25 192 8.0 17.7 0.00 0.00 0.00 71 1010.9
20260509144224 25 258 11.3 17.7 0.00 0.00 0.00 72 1010.8
20260509143724 24 258 9.7 17.7 0.00 0.00 0.00 73 1010.9
20260509143224 24 268 9.7 14.5 0.00 0.00 0.00 73 1011.0
20260509142723 24 238 8.0 17.7 0.00 0.00 0.00 75 1011.0
20260509142225 23 214 9.7 17.7 0.00 0.00 0.00 76 1011.0
20260509141724 23 235 8.0 19.3 0.00 0.00 0.00 76 1011.0
20260509141223 23 259 11.3 22.5 0.00 0.00 0.00 77 1011.0
20260509140724 22 247 11.3 22.5 0.00 0.00 0.00 78 1011.0
20260509140223 22 245 11.3 17.7 0.00 0.00 0.00 81 1011.0
20260509135723 22 219 6.4 14.5 0.00 0.00 0.00 82 1011.0
20260509135223 21 204 3.2 14.5 0.00 0.00 0.00 83 1010.9
20260509135018 21 216 3.2 14.5 0.00 0.00 0.00 84 1011.0
20260509134225 21 254 4.8 14.5 0.00 0.00 0.00 84 1011.0
20260509133722 21 200 6.4 17.7 0.00 0.00 0.00 85 1010.9
20260509133223 20 217 6.4 17.7 0.00 0.00 0.00 87 1010.9
20260509132723 20 183 6.4 14.5 0.00 0.00 0.00 88 1010.8
20260509132223 20 161 4.8 11.3 0.00 0.00 0.00 88 1010.9
20260509131723 20 204 4.8 11.3 0.00 0.00 0.00 88 1010.8
20260509131223 19 189 6.4 11.3 0.00 0.00 0.00 88 1010.8
20260509131019 19 228 6.4 24.1 0.00 0.00 0.00 88 1010.7
20260509130224 -17 190 8.0 24.1 0.00 0.00 0.00 1010.7
20260509125722 19 238 11.3 19.3 0.00 0.00 0.00 89 1010.6
20260509125223 19 216 9.7 17.7 0.00 0.00 0.00 89 1010.6
20260509124722 19 223 9.7 22.5 0.00 0.00 0.00 89 1010.5
20260509124221 19 227 12.9 22.5 0.00 0.00 0.00 89 1010.4
20260509123721 18 209 12.9 22.5 0.00 0.00 0.00 89 1010.4
20260509123222 18 223 9.7 22.5 0.00 0.00 0.00 89 1010.4
20260509122723 18 168 9.7 24.1 0.00 0.00 0.00 89 1010.3
20260509122515 18 213 14.5 24.1 0.00 0.00 0.00 89 1010.3
20260509121722 18 227 17.7 22.5 0.00 0.00 0.00 89 1010.2
20260509121220 18 216 11.3 24.1 0.00 0.00 0.00 89 1010.1
20260509121017 18 196 14.5 24.1 0.00 0.00 0.00 89 1010.1
20260509120222 18 203 9.7 20.9 0.00 0.00 0.00 89 1010.1
20260509120015 18 180 11.3 20.9 0.00 0.00 0.00 89 1010.1
20260509115223 18 178 9.7 16.1 0.00 0.00 0.00 88 1010.2
20260509115013 18 159 8.0 16.1 0.00 0.00 0.00 88 1010.2
20260509114221 18 185 6.4 17.7 0.00 0.00 0.00 88 1010.2
20260509113720 18 214 11.3 22.5 0.00 0.00 0.00 88 1010.0
20260509113220 18 173 12.9 22.5 0.00 0.00 0.00 88 1009.9
20260509112719 18 196 11.3 17.7 0.00 0.00 0.00 87 1009.7
20260509112221 17 195 8.0 16.1 0.00 0.00 0.00 87 1009.8
20260509112017 17 230 3.2 14.5 0.00 0.00 0.00 87 1009.7
20260509111221 17 185 6.4 17.7 0.00 0.00 0.00 87 1009.6
20260509111015 17 209 9.7 17.7 0.00 0.00 0.00 87 1009.6
20260509110221 17 164 8.0 14.5 0.00 0.00 0.00 87 1009.7
20260509105718 17 195 8.0 11.3 0.00 0.00 0.00 88 1009.6
20260509105516 17 173 6.4 9.7 0.00 0.00 0.00 88 1009.7
20260509104719 17 149 6.4 16.1 0.00 0.00 0.00 88 1009.8
20260509104218 17 169 11.3 16.1 0.00 0.00 0.00 88 1009.8
20260509103719 17 195 9.7 22.5 0.00 0.00 0.00 87 1009.8
20260509103218 17 183 12.9 25.7 0.00 0.00 0.00 87 1009.8
20260509102718 17 178 14.5 25.7 0.00 0.00 0.00 86 1009.7
20260509102217 17 168 16.1 25.7 0.00 0.00 0.00 86 1009.8
20260509101717 17 182 16.1 24.1 0.00 0.00 0.00 85 1009.9
20260509101217 17 162 14.5 19.3 0.00 0.00 0.00 84 1009.8
20260509100717 17 158 9.7 17.7 0.00 0.00 0.00 84 1009.8
20260509100217 18 178 8.0 16.1 0.00 0.00 0.00 84 1009.8
20260509095718 18 168 9.7 17.7 0.00 0.00 0.00 83 1009.9
20260509095218 18 147 11.3 19.3 0.00 0.00 0.00 83 1009.7
20260509094717 18 169 12.9 19.3 0.00 0.00 0.00 82 1009.8
20260509094217 18 120 8.0 17.7 0.00 0.00 0.00 82 1009.9
20260509093717 18 149 8.0 16.1 0.00 0.00 0.00 81 1010.1
20260509093218 18 151 8.0 16.1 0.00 0.00 0.00 81 1010.0
20260509092717 18 128 9.7 14.5 0.00 0.00 0.00 81 1010.0
20260509092218 18 128 9.7 22.5 0.00 0.00 0.00 80 1010.1
20260509091716 18 138 12.9 22.5 0.00 0.00 0.00 80 1010.1
20260509091513 18 149 11.3 17.7 0.00 0.00 0.00 80 1010.1
20260509090716 18 172 11.3 22.5 0.00 0.00 0.00 80 1010.1
20260509090216 18 169 12.9 22.5 0.00 0.00 0.00 79 1010.1
20260509085717 18 123 11.3 20.9 0.00 0.00 0.00 79 1010.0
20260509085256 19 134 11.3 19.3 0.00 0.00 0.00 79 1010.0
20260509084215 19 128 12.9 22.5 0.00 0.00 0.00 78 1010.1
20260509083715 19 162 11.3 22.5 0.00 0.00 0.00 78 1010.2
20260509083215 19 152 11.3 19.3 0.00 0.00 0.00 78 1010.2
20260509083007 19 157 12.9 19.3 0.00 0.00 0.00 78 1010.5
20260509082215 19 147 12.9 22.5 0.00 0.00 0.00 79 1010.7
20260509082007 19 149 14.5 22.5 0.00 0.00 0.00 79 1010.9
20260509081217 19 127 14.5 19.3 0.00 0.00 0.00 80 1010.8
20260509080714 19 118 12.9 19.3 0.00 0.00 0.00 81 1010.7
20260509080215 19 149 11.3 22.5 0.00 0.00 0.00 82 1010.9
20260509075715 19 142 14.5 22.5 0.00 0.00 0.00 82 1011.3
20260509075508 19 93 9.7 17.7 0.00 0.00 0.00 82 1011.2
20260509074714 19 111 11.3 20.9 0.00 0.00 0.00 82 1010.9
20260509074215 19 92 9.7 22.5 0.00 0.00 0.00 84 1011.0
20260509073714 19 69 16.1 22.5 0.00 0.00 0.00 84 1011.0
20260509073214 19 63 16.1 24.1 0.00 0.00 0.00 86 1011.2
20260509072714 19 62 11.3 25.7 0.00 0.00 0.00 87 1011.2
20260509072254 20 48 17.7 25.7 0.00 0.00 0.00 88 1011.4
20260509071213 20 75 11.3 20.9 0.00 0.00 0.00 92 1011.6
20260509070713 20 83 11.3 25.7 0.00 0.00 0.00 92 1011.5
20260509070213 20 73 11.3 27.4 0.00 0.00 0.00 92 1011.7
20260509065713 20 32 19.3 27.4 0.00 0.00 0.00 91 1011.6
20260509065214 20 35 11.3 19.3 0.00 0.00 0.00 91 1011.5
20260509064714 20 32 12.9 19.3 0.00 0.00 0.00 91 1011.3
20260509064505 20 34 9.7 11.3 0.00 0.00 0.00 89 1010.9
20260509063959 20 37 6.4 9.7 0.00 0.00 0.00 89 1010.5
20260509063212 20 169 3.2 4.8 0.00 0.00 0.00 89 1010.1
20260509062714 20 169 3.2 4.8 0.00 0.00 0.00 89 1009.9
20260509062212 20 312 1.6 4.8 0.00 0.00 0.00 89 1010.0
20260509061712 20 137 0.0 1.6 0.00 0.00 0.00 89 1009.9
20260509061213 20 0.0 0.0 0.00 0.00 0.00 89 1009.5
20260509060713 20 351 4.8 6.4 0.00 0.00 0.00 89 1009.9
20260509060213 20 351 4.8 6.4 0.00 0.00 0.00 89 1010.2
20260509055711 20 321 1.6 16.1 0.00 0.00 0.00 89 1010.0
20260509055211 20 321 0.0 24.1 0.00 0.00 0.00 89 1009.7
20260509054712 20 341 17.7 24.1 0.00 0.00 0.00 88 1010.2
20260509054212 21 125 1.6 8.0 0.00 0.00 0.00 88 1009.2
20260509053712 21 125 3.2 8.0 0.00 0.00 0.00 88 1008.7
20260509053211 21 142 4.8 8.0 0.00 0.00 0.00 88 1008.6
20260509052711 21 141 6.4 11.3 0.00 0.00 0.00 88 1008.6
20260509052211 21 169 4.8 16.1 0.00 0.00 0.00 87 1008.5
20260509051711 21 166 6.4 16.1 0.00 0.00 0.00 87 1008.6
20260509051210 21 171 6.4 19.3 0.00 0.00 0.00 87 1008.7
20260509050710 21 154 6.4 19.3 0.00 0.00 0.00 87 1008.7
20260509050211 21 154 9.7 19.3 0.00 0.00 0.00 87 1008.7
20260509045959 21 183 9.7 22.5 0.00 0.00 0.00 87 1008.7
20260509045211 21 157 17.7 22.5 0.00 0.00 0.00 87 1008.8
20260509044710 21 196 11.3 24.1 0.00 0.00 0.00 87 1008.9
20260509044209 21 157 17.7 24.1 0.00 0.00 0.00 87 1008.9
20260509043709 21 151 14.5 24.1 0.00 0.00 0.00 86 1008.9
20260509043209 21 154 12.9 24.1 0.00 0.00 0.00 86 1008.8
20260509043000 21 165 16.1 22.5 0.00 0.00 0.00 86 1008.7
20260509042506 21 199 12.9 27.4 0.00 0.00 0.00 85 1008.6
20260509042005 21 180 14.5 27.4 0.00 0.00 0.00 85 1008.7
20260509041209 21 183 11.3 22.5 0.00 0.00 0.00 84 1008.7
20260509040709 21 149 12.9 22.5 0.00 0.00 0.00 84 1008.7
20260509040209 21 185 12.9 22.5 0.00 0.00 0.00 84 1008.7
20260509035710 21 171 16.1 20.9 0.00 0.00 0.00 84 1008.5
20260509035505 22 176 12.9 20.9 0.00 0.00 0.00 84 1008.5
20260509034708 22 152 11.3 27.4 0.00 0.00 0.00 83 1008.4
20260509034459 22 168 17.7 27.4 0.00 0.00 0.00 83 1008.2